Regional Weather Roundup
Issued by NWS

Home | Current Version | Previous Version | Graphics & Text | Print | Product List | Glossary On
Versions: 1 2 3 4 5 6 7 8 9 10 11 12 13 14 15 16 17 18 19 20 21 22 23 24 25 26 27 28 29 30 31 32 33 34 35 36 37 38 39 40 41 42 43 44 45 46 47 48 49 50
000
ASUS43 KFSD 181810
RWRSD

WEATHER ROUNDUP FOR SOUTH DAKOTA
NATIONAL WEATHER SERVICE SIOUX FALLS SD
100 PM CDT FRI AUG 18 2017

NOTE: "FAIR" INDICATES FEW OR NO CLOUDS BELOW 12,000 FEET WITH NO
SIGNIFICANT WEATHER AND/OR OBSTRUCTIONS TO VISIBILITY.


SDZ001>005-009-010-012>017-181900-
NORTHWEST AND NORTH CENTRAL SOUTH DAKOTA

CITY           SKY/WX    TMP DP  RH WIND       PRES   REMARKS
BUFFALO          N/A     80  47  31 NW6       29.98F
FAITH            N/A     80  46  30 MISG      30.01S
MOBRIDGE       MOSUNNY   76  59  55 N13       29.94S
$$

SDZ012>016-024>037-041>051-057-063-072>074-181900-
SOUTHWEST AND SOUTH CENTRAL SOUTH DAKOTA

CITY           SKY/WX    TMP DP  RH WIND       PRES   REMARKS
RAPID CTY ARPT SUNNY     82  46  28 N10       30.05F
PIERRE         SUNNY     79  53  40 NW13G21   29.96R
CUSTER         SUNNY     75  35  23 NW13G18   30.19S
ELLSWORTH AFB  SUNNY     80  47  31 N10       30.05F
PHILIP         SUNNY     85  47  26 N12G21    29.99F
PINE RIDGE     SUNNY     83  51  33 N7        30.06F
SPEARFISH      FAIR      81  37  21 N12       30.09F
WINNER         FAIR      81  60  48 N9        29.97S
$$

SDZ004>011-016>023-039-040-181900-
NORTHEAST SOUTH DAKOTA

CITY           SKY/WX    TMP DP  RH WIND       PRES   REMARKS
ABERDEEN       PTSUNNY   71  60  68 NW16G25   29.90S
WATERTOWN      SUNNY     76  61  59 S13       29.89F
BROOKINGS      SUNNY     75  60  59 S12       29.91F
SISSETON         N/A     67  62  84 NE7       29.88F
$$

SDZ017-020-022-023-036>040-048>070-181900-
SOUTHEAST SOUTH DAKOTA

CITY           SKY/WX    TMP DP  RH WIND       PRES   REMARKS
SIOUX FALLS    MOSUNNY   77  64  64 S9        29.92F
HURON          SUNNY     77  65  66 W8        29.90F
CHAMBERLAIN    SUNNY     81  61  51 NW14      29.95S
MITCHELL       CLOUDY    76  64  66 W8        29.92R
YANKTON        CLOUDY    77  63  61 S8        29.92F
$$

ABBREVIATIONS USED IN REMARKS
   TC - TEMPERATURE IN CELSIUS
  WCI - WIND CHILL INDEX
   HX - HEAT INDEX
  VSB - VISIBILITY





USA.gov is the U.S. government's official web portal to all federal, state and local government web resources and services.